Culdrose, United Kingdom

10:39 PM BST on July 25, 2017 (GMT +0100)
Culdrose Navy

Weather History for EGDR - October, 2013

Change the Weather History Date:

Saturday, October 5, 2013

  Actual Average Record
Temperature  
Mean Temperature 58 °F -  
Max Temperature 63 °F 55 °F 63 °F (2013)
Min Temperature 53 °F 47 °F 41 °F (1999)
Degree Days  
Heating Degree Days 7    
Growing Degree Days 8 (Base 50)    
Moisture  
Dew Point 54 °F    
Average Humidity 87    
Maximum Humidity 100    
Minimum Humidity 68    
Precipitation  
Precipitation 0.00 in - - ()
Sea Level Pressure  
Sea Level Pressure 30.18 in    
Wind  
Wind Speed 5 mph ()    
Max Wind Speed 8 mph    
Max Gust Speed -    
Visibility 7.6 miles    
Events Fog    
Averages and records for this station are not official NWS values.
T = Trace of Precipitation, MM = Missing Value Source: Averaged Metar Reports

Daily Weather History Graph

Daily Weather History Graph

Search for Another Location

Airport or City:

Trip Planner

Search our weather history database for the weather conditions in past years. The results will help you decide how hot, cold, wet, or windy it might be!

Date:

Astronomy

Oct. 05, 2013 Rise Set
Actual Time 7:27 AM BST 6:50 PM BST
Civil Twilight 6:55 AM BST 7:22 PM BST
Nautical Twilight 6:17 AM BST 8:00 PM BST
Astronomical Twilight 5:39 AM BST 8:38 PM BST
Moon 7:57 AM BST (10/5) 6:52 PM BST (10/5)
Length of Visible Light 12h 27m
Length of Day
11h 23m
New Moon, 0% of the Moon is Illuminated
Oct 5
New Moon
Oct 12
First Quarter
Oct 19
Full
Oct 27
Last Quarter
Nov 3
New

Hourly Weather History & Observations

Time (BST) Temp. Dew Point Humidity Pressure Visibility Wind Dir Wind Speed Gust Speed Precip Events Conditions
12:50 AM 54 °F 53 °F 93% 30.05 in 12 mi WNW 6.9 mph - -   Partly Cloudy
12:50 AM 53.6 °F 51.8 °F 94% 30.04 in 6.2 mi WNW 6.9 mph - N/A   Partly Cloudy
1:50 AM 53.6 °F 51.8 °F 94% 30.04 in - WNW 6.9 mph - N/A   Clear
2:50 AM 53.6 °F 51.8 °F 94% 30.06 in - WNW 8.1 mph - N/A   Clear
3:50 AM 55 °F 53 °F 90% 30.08 in 12 mi WNW 6.9 mph - -   Mostly Cloudy
3:50 AM 55.4 °F 53.6 °F 94% 30.06 in 6.2 mi WNW 6.9 mph - N/A   Mostly Cloudy
4:50 AM 53.6 °F 53.6 °F 100% 30.09 in 6.2 mi WNW 4.6 mph - N/A   Mostly Cloudy
5:50 AM 55.4 °F 53.6 °F 94% 30.09 in 6.2 mi WNW 6.9 mph - N/A   Drizzle
6:50 AM 55.4 °F 53.6 °F 94% 30.12 in 6.2 mi WNW 4.6 mph - N/A   Mostly Cloudy
7:50 AM 55.4 °F 53.6 °F 94% 30.12 in 6.2 mi West 5.8 mph - N/A   Overcast
8:50 AM 57.2 °F 55.4 °F 94% 30.15 in 6.2 mi West 3.5 mph - N/A   Overcast
9:50 AM 59 °F 55 °F 82% 30.19 in 11 mi NW 4.6 mph - -   Partly Cloudy
9:50 AM 59.0 °F 55.4 °F 88% 30.18 in 6.2 mi NW 4.6 mph - N/A   Mostly Cloudy
10:50 AM 60.8 °F 55.4 °F 82% 30.18 in 6.2 mi WSW 4.6 mph - N/A   Mostly Cloudy
11:50 AM 60.8 °F 55.4 °F 82% 30.21 in 6.2 mi SW 4.6 mph - N/A   Mostly Cloudy
12:50 PM 62 °F 54 °F 69% 30.22 in 16 mi SW 5.8 mph - -   Overcast
12:50 PM 62.6 °F 53.6 °F 72% 30.21 in 6.2 mi SW 5.8 mph - N/A   Mostly Cloudy
1:50 PM 62.6 °F 51.8 °F 68% 30.21 in 6.2 mi WSW 4.6 mph - N/A   Mostly Cloudy
2:50 PM 60.8 °F 55.4 °F 82% 30.21 in 6.2 mi WSW 4.6 mph - N/A   Mostly Cloudy
3:50 PM 61 °F 56 °F 78% 30.24 in 12 mi SW 4.6 mph - -   Mostly Cloudy
3:50 PM 60.8 °F 55.4 °F 82% 30.21 in 6.2 mi SW 4.6 mph - N/A   Mostly Cloudy
4:50 PM 60.8 °F 55.4 °F 82% 30.21 in 6.2 mi WSW 4.6 mph - N/A   Mostly Cloudy
5:50 PM 59.0 °F 51.8 °F 77% 30.24 in 6.2 mi WSW 3.5 mph - N/A   Mostly Cloudy
6:50 PM 58 °F 51 °F 70% 30.25 in 10 mi South 3.5 mph - -   Mostly Cloudy
6:50 PM 59.0 °F 51.8 °F 77% 30.24 in 6.2 mi South 3.5 mph - N/A   Mostly Cloudy
7:50 PM 57.2 °F 53.6 °F 88% 30.24 in 6.2 mi SSE 3.5 mph - N/A   Partly Cloudy
8:50 PM 57.2 °F 53.6 °F 88% 30.24 in 6.2 mi South 4.6 mph - N/A   Partly Cloudy
9:50 PM 53 °F 52 °F 94% 30.28 in 12 mi South 4.6 mph - -   Mostly Cloudy
9:50 PM 53.6 °F 51.8 °F 94% 30.27 in 6.2 mi South 4.6 mph - N/A   Mostly Cloudy
10:50 PM 55.4 °F 55.4 °F 100% 30.27 in 6.2 mi SW 3.5 mph - N/A   Mostly Cloudy
11:50 PM 55.4 °F 53.6 °F 94% 30.27 in 5.0 mi South 4.6 mph - N/A Fog Fog